Location: Holyhead Bay
(53.3667°N, 4.6667°W)
Time: 19:48:51
(UTC+00:00)

Cosmos 2297 - Pass Details

Date: 24 November 2020
Orbit: 835 x 859 km, 71.0° (Epoch: 16 January)

Event Time Altitude Azimuth Distance (km) Brightness Sun altitude
Rises 18:17:06 0° 327° (NNW) 3,409 7.2 -18.2°
Reaches altitude 10° 18:19:33 10° 327° (NNW) 2,473 6.4 -18.6°
Maximum altitude 18:25:14 87° 239° (WSW) 856 3.7 -19.4°
Drops below altitude 10° 18:30:56 10° 152° (SSE) 2,475 5.9 -20.2°
Sets 18:33:23 0° 152° (SSE) 3,411 6.7 -20.6°
